Regional Weather Roundup
Issued by NWS Upton, NY

Current Version | Previous Version | Graphics & Text | Print | Product List | Glossary Off
Versions: 1 2 3 4 5 6 7 8 9 10 11 12 13 14 15 16 17 18 19 20 21 22 23 24 25 26 27 28 29 30 31 32 33 34 35 36 37 38 39 40 41 42 43 44 45 46 47 48 49 50

000
ASUS41 KOKX 060308
RWROKX

REGIONAL WEATHER ROUNDUP
NATIONAL WEATHER SERVICE NEW YORK NY
1100 PM EDT TUE MAY 05 2015

NOTE: "FAIR" INDICATES FEW OR NO CLOUDS BELOW 12,000 FEET WITH NO
SIGNIFICANT WEATHER AND/OR OBSTRUCTIONS TO VISIBILITY.

NYZ071-072-176-178-NJZ106-104-060400-
NEW YORK CITY METRO AREA


CITY           SKY/WX    TMP DP  RH WIND       PRES   REMARKS
CENTRAL PARK   PTCLDY    71  52  50 CALM      30.20F
LAGUARDIA APRT MOCLDY    68  53  58 S3        30.17S
KENNEDY INTL   MOCLDY    59  52  77 CALM      30.19S
NEWARK/LIBERTY MOCLDY    71  54  54 CALM      30.18S
BRNX BOT. GARD   N/A     66  52  59 CALM      30.18F
TETERBORO      MOCLDY    69  53  56 N3        30.17S
$$

NYZ177-179-078>081-060400-
LONG ISLAND NEW YORK

CITY           SKY/WX    TMP DP  RH WIND       PRES   REMARKS
FARMINGDALE    PTCLDY    61  53  75 CALM      30.18F
ISLIP          MOCLDY    61  52  72 S6        30.17S
SHIRLEY        PTCLDY    60  53  77 S6        30.19F
WESTHAMPTON    PTCLDY    58  50  75 CALM      30.20F
MONTAUK POINT    N/A     56  49  77 CALM      30.22S
$$

NYZ052-065-067-060400-
HUDSON VALLEY

CITY           SKY/WX    TMP DP  RH WIND       PRES   REMARKS
WHITE PLAINS   MOCLDY    64  53  67 NW6       30.19R
NEWBURGH       CLEAR     70  45  40 E12       30.23R
MONTGOMERY     CLOUDY    69  44  40 NE8       30.21R
POUGHKEEPSIE   MOCLDY    69  43  38 N3        30.20R
ALBANY         CLOUDY    64  38  38 N5        30.23R
$$

NJZ001-105-106-008-010-013-015-019>022-104-060400-
NEW JERSEY

CITY           SKY/WX    TMP DP  RH WIND       PRES   REMARKS
NEWARK/LIBERTY MOCLDY    71  54  54 CALM      30.18S
TETERBORO      MOCLDY    69  53  56 N3        30.17S
CALDWELL       MOCLDY    66  57  72 CALM      30.19S
MORRISTOWN     MOCLDY    68  55  64 CALM      30.19R
SOMERVILLE     CLOUDY    65  58  78 CALM      30.17S
SUSSEX         CLOUDY    65  51  60 CALM      30.23R
ANDOVER          N/A     64  57  78 CALM      30.21S
TRENTON        CLOUDY    70  56  61 CALM      30.19S
MILLVILLE      CLOUDY    67  64  90 CALM      30.21S
ATLANTIC CITY  CLOUDY    72  58  61 W15G23    30.21S
WRIGHTSTOWN    MOCLDY    67  61  79 SW2       30.18R
TOMS RIVER     PTCLDY    64  59  82 CALM      30.20F
BELMAR         CLOUDY    72  55  56 W3        30.19S
$$

PAZ047>061-062-071-060400-
EASTERN PENNSYLVANIA

CITY           SKY/WX    TMP DP  RH WIND       PRES   REMARKS
PHILADELPHIA   CLOUDY    75  58  55 SW7       30.21R
ALLENTOWN      CLOUDY    67  56  67 SW3       30.21R
SCRANTON       CLOUDY    71  44  37 N7        30.23S
$$

CTZ002-004>006-009-010-012-RIZ004-006-007-MAZ004-011-015-060400-
SOUTHERN NEW ENGLAND
 IN CT

CITY           SKY/WX    TMP DP  RH WIND       PRES   REMARKS
BRADLEY INTL   MOCLDY    65  36  34 N7        30.20S
HARTFORD       PTCLDY    65  53  65 VRB5      30.19S
DANBURY        MOCLDY    65  52  62 CALM      30.21R
WTRBRY/OXFORD    N/A     64  46  52 N9        30.22S
BRIDGEPORT     PTCLDY    63  53  70 N3        30.19R
MERIDEN        PTCLDY    65  54  67 CALM      30.20R
NEW HAVEN      PTCLDY    60  52  74 CALM      30.19S
CHESTER        FAIR      63  54  72 CALM      30.21S
GROTON         PTCLDY    61  50  67 CALM      30.20F
WILLIMANTIC    PTCLDY    64  50  60 CALM      30.22R

 IN RI

CITY           SKY/WX    TMP DP  RH WIND       PRES   REMARKS
PROVIDENCE     MOCLDY    56  50  80 S6        30.23R
BLOCK ISLAND   MOCLDY    54  46  76 CALM      30.22S
WESTERLY       PTCLDY    59  50  72 NE6       30.22S

 IN MA

CITY           SKY/WX    TMP DP  RH WIND       PRES   REMARKS
BOSTON         PTCLDY    54  51  90 CALM      30.22S
WORCESTER      PTCLDY    59  46  62 SW3       30.23R
WESTFIELD      CLEAR     58  39  49 CALM      30.21R
PROVINCETOWN   MOCLDY    55  48  76 S6        30.23S
NANTUCKET      MOCLDY    50  46  86 S3        30.22S
$$

ANZ330-335-338-340-345-350-353-355-060400-
COASTAL MARINE OBSERVATIONS


STATION/POSITION TIME  SKY/WX   TEMP    WIND        PRES    VSBY  WAVE
                                AIR SEA DIR/SP/G                  HT/PER
                 (UTC)          (F)     (DEG/KT/KT) (MB)    (MI)  (FT/S)
NY HARB ENTRANCE 0250            54 51  220/  8/ 10 1021.6          3/11
4S FIRE IS       0203               51                N/A           3/11
20S FIRE ISLAND  0250            53 49  210/ 12/ 14 1022.1          3/ 6
GREAT SOUTH BAY  0215            58 60  240/  8/ 10   N/A
23SW MTP         0250            51 49  220/  8/  8 1022.3          3/ 6
HUDSON CANYON    NOT AVBL
KINGS POINT      0200            66 51  190/  5/  6 1021.4
EASTERN LI SOUND 0200            52      70/  6/  8   N/A
ROBBINS REEF     0200            67     160/  7/  7 1020.8
$$


>>>>>>>>>>>>>>>>>>>>>>>>>>>> KEY <<<<<<<<<<<<<<<<<<<<<<<<<<<
>                                                          <
>     SKY/WX - SKY CONDITION/PRESENT WEATHER               <
>     TMP    - TEMPERATURE IN FAHRENHEIT                   <
>     DP     - DEWPOINT IN FAHRENHEIT                      <
>     RH     - RELATIVE HUMIDITY IN PERCENT                <
>     WIND   - DIRECTION AND SPEED IN MPH                  <
>     PRES   - MEAN SEA LEVEL PRESSURE IN INCHES OF HG     <
>     WCI    - WIND CHILL INDEX                            <
>     VSB    - VISIBILITY IN MILES                         <
>     HX     - HEAT INDEX                                  <
>     TC     - TEMPERATURE IN CELSIUS                      <
>     VRB    - VARIABLE WIND DIRECTION                     <
>                                                          <
>>>>>>>>>>>>>>>>>>>>>>>>>>>> KEY <<<<<<<<<<<<<<<<<<<<<<<<<<<




USA.gov is the U.S. government's official web portal to all federal, state and local government web resources and services.